Location: Newark
(48.6461°N, 4.3644°W)
Time: 05:03:10
(UTC+00:00)

STARLINK 1053 - Pass Details

Date: 10 December 2019
Orbit: 549 x 550 km, 53.0° (Epoch: 24 January)

Event Time Altitude Azimuth Distance (km) Brightness Sun altitude
Exits shadow 05:37:05 58° 210° (SSW) 667 3.8 -22.3°
Drops below altitude 10° 05:41:14 10° 134° (SE) 1,871 7.1 -21.6°
Enters shadow 06:38:08 -68° 323° (NW) 12,420 10.4 -12.6°
